LEMUR-1 1 40044U 14033AL 26256.20406410 .00001753 00000+0 20505-3 0 9991 2 40044 97.8002 44.1347 0048770 147.9453 212.4745 14.85517657658533 LEMUR-2-GREENBERG 1 42837U 17042N 26256.03395675 .00013982 00000+0 42882-3 0 9996 2 42837 97.3855 76.4500 0009250 56.2408 303.9715 15.33836571501844 LEMUR-2-ANDIS 1 42838U 17042P 26255.77449843 .00019690 00000+0 52469-3 0 9998 2 42838 97.3696 76.7176 0008654 54.1819 306.0229 15.38171231501901 LEMUR-2-MONSON 1 42839U 17042Q 26256.04415372 .00010675 00000+0 36735-3 0 9992 2 42839 97.4119 76.2827 0007271 50.4150 309.7732 15.30217158501597 LEMUR-2-FURIAUS 1 42840U 17042R 26256.02005941 .00014714 00000+0 46473-3 0 9997 2 42840 97.3803 74.1955 0007936 106.6167 253.5947 15.32898374501655 LEMUR-2-PETERG 1 42841U 17042S 26256.26388937 .00017343 00000+0 47493-3 0 9997 2 42841 97.4004 81.6847 0004222 38.5137 321.6408 15.37381827501955 LEMUR-2-DEMBITZ 1 42842U 17042T 26256.04257541 .00013863 00000+0 43971-3 0 9990 2 42842 97.3843 77.2935 0007342 68.6001 291.6024 15.32779933501791 LEMUR-2-ZACHARY 1 42845U 17042W 26256.07202001 .00051299 00000+0 66766-3 0 9999 2 42845 97.3527 90.0822 0003272 59.3485 300.8093 15.58603584502855 LEMUR-2-AMANDA-SVANTE 1 48269U 21034B 26256.18845374 .00026970 00000+0 68755-3 0 9997 2 48269 97.5697 337.1047 0000967 276.4267 83.6868 15.39509984294574 LEMUR-2-EMBRIONOVIS 1 56970U 23084AQ 26255.87064028 .00010964 00000+0 28018-3 0 9990 2 56970 97.6408 43.6382 0008316 10.7984 349.3438 15.39613836181162 LEMUR-2-DEVERILL-M-T 1 57391U 23100F 26256.10711481 .00021890 00000+0 48364-3 0 9992 2 57391 99.4382 320.5506 0006196 101.6355 258.5583 15.43889205174795 LEMUR-2-BASS 1 58259U 23174D 26256.13066095 .00013697 00000+0 28485-3 0 9992 2 58259 97.3811 342.2231 0006101 199.1597 160.9424 15.45742513158935 LEMUR-2-JK0903EM1407 1 58336U 23174CJ 26256.24225199 .00024504 00000+0 35315-3 0 9991 2 58336 97.3907 349.4625 0004759 146.2500 213.9058 15.55998502159404 LEMUR-2-MJR092620 1 58340U 23174CN 26256.22837700 .00015389 00000+0 29744-3 0 9991 2 58340 97.3959 348.0596 0006260 148.3080 211.8549 15.47847249159250 LEMUR-2-NIMBUS2000 1 58899U 24022A 26256.09094844 .00017769 00000+0 39925-3 0 9998 2 58899 97.3996 107.3742 0008752 150.1255 210.0494 15.43371943145818 LEMUR-2-VALHALLA 1 58900U 24022B 26256.13298520 .00012174 00000+0 28662-3 0 9994 2 58900 97.3997 107.2988 0009467 146.9727 213.2113 15.42053978145811 LEMUR-2-CAEL 1 58903U 24022E 26256.12742344 .00012930 00000+0 28944-3 0 9997 2 58903 97.3974 108.3953 0008315 129.6384 230.5599 15.43559892145896 LEMUR-2-JOHNNYTRUONG 1 59146U 24043BA 26256.00753909 .00043023 00000+0 39915-3 0 9993 2 59146 97.5446 53.6465 0003406 209.5837 150.5231 15.67350798141765 LEMUR-2-TOMATOKECHUP 1 60471U 24149D 26255.68021439 .00008416 00000+0 22993-3 0 9997 2 60471 97.3754 338.0279 0000142 299.1387 60.9843 15.37648150115606 LEMUR-2-STELLA 1 60533U 24149BT 26256.19426763 .00008151 00000+0 45950-3 0 9996 2 60533 97.6694 339.1195 0001696 100.5335 259.6087 15.13452227113802 LEMUR-2-MARHISYAM 1 60536U 24149BW 26256.21146948 .00006320 00000+0 36449-3 0 9995 2 60536 97.6840 339.6651 0002511 145.9190 214.2202 15.12723658113780 LEMUR-2-AHMED-ASRAR 1 60576U 24149DN 26256.22011341 .00007116 00000+0 39113-3 0 9993 2 60576 97.6974 342.1280 0003075 75.0747 285.0825 15.14405032113889 LEMUR-2-LLOYD 1 60577U 24149DP 26256.17756841 .00007404 00000+0 45100-3 0 9992 2 60577 97.6701 337.4242 0003421 188.4274 171.6898 15.10679206113671 LEMUR-2-SQUIRRELCOMM 1 60578U 24149DQ 26255.53554468 .00003752 00000+0 24800-3 0 9999 2 60578 97.6664 336.2002 0006823 110.2278 249.9684 15.07993035113562 LEMUR-2-SIERRINI 1 60579U 24149DR 26256.18252589 .00008264 00000+0 47753-3 0 9996 2 60579 97.6801 339.2475 0004063 222.7120 137.3795 15.12556093113751 LEMUR-2-WILSON 1 62694U 25009CP 26256.15710816 .00001852 00000+0 17254-3 0 9990 2 62694 97.6967 333.0673 0004707 102.1954 257.9794 14.95470617090509 LEMUR-2-STAR-FOX 1 62696U 25009CR 26255.70398558 .00004107 00000+0 30555-3 0 9992 2 62696 97.6899 336.7036 0002655 146.1483 213.9912 15.03519311090704 LEMUR-2-ARIANNA 1 62699U 25009CU 26256.16794816 .00005394 00000+0 39949-3 0 9998 2 62699 97.6839 336.8715 0002699 153.0261 207.1105 15.03551625090775 LEMUR-2-ALISIA 1 62706U 25009DB 26255.66132778 .00005564 00000+0 40842-3 0 9997 2 62706 97.6897 337.2897 0001536 306.2672 53.8412 15.03875608113303 LEMUR-2-ROUNDTRIPPER 1 62711U 25009DG 26255.69060845 .00006911 00000+0 49116-3 0 9991 2 62711 97.7210 338.2968 0003530 174.9601 185.1661 15.05004691090786 LEMUR-2-MYNAMEISJEFF 1 62712U 25009DH 26256.22077461 .00005499 00000+0 39183-3 0 9997 2 62712 97.7257 339.2629 0001454 197.3983 162.7193 15.05000606090860 LEMUR-2-LEIA-PHILIP 1 63246U 25052AN 26255.94132815 .00001745 00000+0 15426-3 0 9995 2 63246 97.6699 146.3669 0002833 314.9289 45.1702 14.97593646081806 LEMUR-2-LIA-MARTIN 1 63248U 25052AQ 26255.70550902 .00003301 00000+0 28147-3 0 9996 2 63248 97.6738 146.7626 0001603 233.0965 127.0111 14.98411935081787 LEMUR-2-DELOITTE-1 1 63259U 25052BB 26255.96394029 .00002623 00000+0 22644-3 0 9994 2 63259 97.6772 147.3485 0001826 133.6956 226.4418 14.98107031081838 LEMUR-2-EMERSONROSE 1 63261U 25052BD 26255.65133164 .00003488 00000+0 28794-3 0 9996 2 63261 97.6762 147.7719 0005166 103.6772 256.5027 14.99623854081846 LEMUR-2-MARACHE-FRAN 1 63262U 25052BE 26256.16531763 .00003513 00000+0 28145-3 0 9990 2 63262 97.6664 148.6896 0011269 66.9211 293.3199 15.00737045081956 LEMUR-2-THEFALCONER 1 63264U 25052BG 26255.67033845 .00000474 00000+0 45247-4 0 9991 2 63264 97.6732 146.5822 0003633 68.8610 291.3000 14.97796469081780 LEMUR-2-UNTITLED-SC 1 63351U 25061A 26255.87391605 .00003276 00000+0 18349-3 0 9996 2 63351 97.5739 230.6735 0017562 327.6768 32.3386 15.14010017080852 LEMUR-2-ESPERANZA 1 63352U 25061B 26256.17556008 .00002735 00000+0 15337-3 0 9994 2 63352 97.5747 231.0890 0017166 326.0685 33.9447 15.14114139080901 LEMUR-2-KREMPEL-BRO2 1 63353U 25061C 26256.24331634 .00002836 00000+0 15693-3 0 9996 2 63353 97.5795 231.8022 0017836 317.4201 42.5647 15.14557530080939 LEMUR-2-THERMORAPTOR 1 63354U 25061D 26256.15457709 .00003294 00000+0 18126-3 0 9992 2 63354 97.5800 231.8063 0017501 316.6937 43.2918 15.14640112080925 LEMUR-2-NEUROSPICY 1 63355U 25061E 26256.18549774 .00002841 00000+0 15646-3 0 9991 2 63355 97.5726 231.3954 0015499 320.8920 39.1191 15.14757247080936 LEMUR-2-TILLINFINITY 1 63356U 25061F 26255.92219558 .00002965 00000+0 16034-3 0 9996 2 63356 97.5710 231.4863 0016417 308.4035 51.5722 15.15361160080923 LEMUR-2-KREMPEL-BRO1 1 63357U 25061G 26256.17143095 .00003247 00000+0 17620-3 0 9993 2 63357 97.5712 231.6254 0017056 308.6489 51.3216 15.15154615080951 LEMUR-2-LANGER2SPACE 1 63358U 25061H 26256.14976235 .00003363 00000+0 18411-3 0 9999 2 63358 97.5718 231.3815 0015312 319.1687 40.8396 15.14841673080934 LEMUR-2-BALTO 1 63395U 25052BH 26255.68180126 .00002771 00000+0 22327-3 0 9997 2 63395 97.6693 148.2685 0009352 129.6879 230.5171 15.00712575081880 LEMUR-2-KRISH 1 64561U 25135AK 26256.13047038 .00003836 00000+0 33940-3 0 9996 2 64561 97.7817 10.4743 0001640 104.7741 255.3662 14.96889576067079 LEMUR-2-HUBBLE-4 1 64565U 25135AP 26256.29746275 .00000786 00000+0 79590-4 0 9999 2 64565 97.7765 9.2199 0002677 29.2032 330.9337 14.93731128067021 LEMUR-2-SEJONG-2 1 64586U 25135BL 26256.26708586 .00003727 00000+0 32620-3 0 9992 2 64586 97.7764 10.7573 0005292 50.4396 309.7292 14.97325980067125 LEMUR-2-HUBBLE-5 1 64840U 25135BT 26256.14888453 .00001161 00000+0 11322-3 0 9990 2 64840 97.7788 9.8119 0006646 55.6865 304.4983 14.94359105067044 LEMUR-2-KARENDARRELL 1 64841U 25135BU 26256.26605634 .00005508 00000+0 43345-3 0 9991 2 64841 97.7861 12.4775 0010359 274.3968 85.6072 15.01204407067225 LEMUR-2-LUCILLE-ROSE 1 65403U 25135BV 26256.30654959 .00004716 00000+0 37150-3 0 9992 2 65403 97.7658 12.4682 0012573 1.9448 358.1823 15.01214489061854 LEMUR-2-AFFIE-WAUWIE 1 66295U 25248C 26254.31652985 .00018427 00000+0 62920-3 0 9990 2 66295 45.3927 7.2741 0007994 237.4052 122.6067 15.30099405047778 OTTER SDM 1 66678U 25276N 26255.46310381 .00004476 00000+0 20684-3 0 9994 2 66678 97.4144 327.5137 0006924 62.7171 297.4769 15.20670993043673 LEMUR-2-STAS-GORBUK 1 66686U 25276W 26256.09457434 .00003846 00000+0 18078-3 0 9998 2 66686 97.4175 328.1724 0006371 60.6941 299.4930 15.20167551043766 LEMUR-2-TEODOR 1 66768U 25276DG 26256.17846965 .00003765 00000+0 16863-3 0 9999 2 66768 97.4082 328.6049 0001551 121.7640 238.3747 15.21862071043824 LEMUR-2-LAILA 1 66776U 25276DQ 26256.13918144 .00004089 00000+0 18163-3 0 9998 2 66776 97.4105 328.7441 0001071 146.6803 213.4501 15.22096628043820 LEMUR-2-CELIJO-SB-PK 1 66781U 25276DV 26256.13268046 .00004803 00000+0 38206-3 0 9997 2 66781 97.5151 324.0010 0001739 213.4951 146.6164 15.00863567035819 LEMUR-2-FINNIAN 1 66782U 25276DW 26255.69398076 .00003563 00000+0 28344-3 0 9999 2 66782 97.5245 323.9792 0010714 152.4686 207.7108 15.00984598033126 LEMUR-2-STARLIGHT 1 66783U 25276DX 26256.12233840 .00003808 00000+0 31143-3 0 9999 2 66783 97.5147 323.7687 0016309 189.6465 170.4449 14.99826199043373 LEMUR-2-TARTIFLETTE 1 66784U 25276DY 26256.12074258 .00003094 00000+0 25406-3 0 9998 2 66784 97.5149 323.7771 0015106 197.4299 162.6408 14.99814697043374 LEMUR-2-VUKASIN 1 66785U 25276DZ 26256.11134536 .00003592 00000+0 28600-3 0 9996 2 66785 97.5044 324.1630 0005790 139.0060 221.1600 15.00975536043338 LEMUR-2-HOTSPUR-TOM 1 66786U 25276EA 26256.11890494 .00003699 00000+0 30341-3 0 9992 2 66786 97.5140 323.7313 0015470 194.2615 165.8175 14.99742668043307 LEMUR-2-MYRA 1 66787U 25276EB 26256.14232069 .00004747 00000+0 37546-3 0 9993 2 66787 97.5312 324.2172 0016048 209.7148 150.3167 15.01000086043409 LEMUR-2 FIKRETDENGIZ 1 67363U 26004A 26255.98801098 .00002581 00000+0 28086-3 0 9992 2 67363 97.8079 253.2603 0007789 200.8844 159.2056 14.88881587036347 TWILIGHT-1 OBJECT B 1 67364U 26004B 26255.92395450 .00001159 00000+0 13236-3 0 9998 2 67364 97.8127 253.1534 0008089 191.1453 168.9585 14.87952794036337 LEMUR-2-MARIO-SOUSA 1 67365U 26004C 26255.95897272 .00002181 00000+0 23705-3 0 9999 2 67365 97.8048 253.2237 0007345 201.3544 158.7368 14.89096690036354 LEMUR-2-SONNENBLUME 1 67367U 26004E 26255.97574832 .00001809 00000+0 19960-3 0 9991 2 67367 97.8052 253.1799 0007067 203.6447 156.4446 14.88698419036359 LEMUR-2-WOBLER 1 67368U 26004F 26256.22176316 .00002881 00000+0 31156-3 0 9998 2 67368 97.8099 253.6410 0007400 190.4429 169.6635 14.89055539036391 LEMUR-2-GRAM-E-SUE 1 67370U 26004H 26255.95144159 .00003286 00000+0 35600-3 0 9998 2 67370 97.8033 253.1751 0006107 203.8072 156.2863 14.88886575036353 LEMUR-2-KATIE 1 67387U 26004AA 26256.24167970 .00002748 00000+0 28597-3 0 9994 2 67387 97.8089 254.2181 0003816 136.4273 223.7247 14.90658315036425 LEMUR-2-HCS-BAZUS 1 67388U 26004AB 26256.24008590 .00002743 00000+0 28558-3 0 9999 2 67388 97.8078 254.1856 0003588 129.1749 230.9788 14.90653166036424